Regional Weather Roundup
Issued by NWS

Home | Current Version | Previous Version | Graphics & Text | Print | Product List | Glossary On
Versions: 1 2 3 4 5 6 7 8 9 10 11 12 13 14 15 16 17 18 19 20 21 22 23 24 25 26 27 28 29 30 31 32 33 34 35 36 37 38 39 40 41 42 43 44 45 46 47 48 49 50
000
ASUS43 KTOP 292208
RWRKS

WEATHER ROUNDUP FOR KANSAS
NATIONAL WEATHER SERVICE GOODLAND KS
500 PM CDT MON MAY 29 2017

NOTE:  "FAIR" INDICATES FEW OR NO CLOUDS BELOW 12,000 FEET WITH NO
SIGNIFICANT WEATHER AND/OR OBSTRUCTIONS TO VISIBILITY.

KSZ001>006-013>018-027>032-041>047-292300-
NORTHWEST KANSAS

CITY           SKY/WX    TMP DP  RH WIND       PRES   REMARKS
GOODLAND       MOSUNNY   71  44  37 NW9       30.14F
HAYS           CLOUDY    77  46  33 W8        30.08F
HILL CITY      PTSUNNY   78  40  25 N10       30.09F
RUSSELL        SUNNY     78  44  29 W8        30.06F
$$

KSZ061>065-074>080-084>089-292300-
SOUTHWEST KANSAS

CITY           SKY/WX    TMP DP  RH WIND       PRES   REMARKS
DODGE CITY     MOSUNNY   80  45  28 VRB6G21   30.09F
ELKHART          N/A     76  42  29 MISG        N/A
GARDEN CITY    PTSUNNY   76  41  28 N6        30.10F
GREAT BEND     SUNNY     78  49  35 NW7       30.07F
LIBERAL        CLOUDY    79  43  27 S3        30.10F
PRATT          MOSUNNY   79  46  30 NW13      30.06F
$$

KSZ066>073-081>083-090>101-292300-
SOUTHEAST KANSAS

CITY           SKY/WX    TMP DP  RH WIND       PRES   REMARKS
CHANUTE        SUNNY     84  45  25 W12       30.00S
COFFEYVILLE    SUNNY     87  54  32 NW8       29.98F
HUTCHINSON     SUNNY     83  50  31 NW9       30.03F
MEDICINE LODGE   N/A     83  47  28 N7        30.03F
NEWTON         SUNNY     82  47  29 NW12G18   30.04S
PARSONS        SUNNY     86  50  28 MISG      30.00F
WICHITA INTL   MOSUNNY   83  49  30 W15       30.01F
WICHITA JABRA  MOSUNNY   84  48  28 NW10G17   30.01F
WICHITA MCCONL MOSUNNY   83  46  27 W13       30.02S
WINFIELD       MOSUNNY   85  49  28 N8G20     30.01F
$$

KSZ007>012-019>026-033>040-048>060-102>105-292300-
NORTHEAST KANSAS

CITY           SKY/WX    TMP DP  RH WIND       PRES   REMARKS
CONCORDIA      SUNNY     77  45  32 NW15      30.03F
EMPORIA        MOSUNNY   81  53  37 NW12      30.02S
LAWRENCE       SUNNY     80  48  32 NW12      30.00F
MANHATTAN      MOSUNNY   82  50  32 NW6       30.01S
MARYSVILLE     SUNNY     79  43  27 W13G21    30.01S
OLATHE IND     SUNNY     79  49  34 NW13      30.01S
OLATHE EXE     SUNNY     78  48  34 NW8       30.00S
SALINA         MOSUNNY   83  47  28 NW10      30.04S
TOPEKA BILLARD SUNNY     81  48  31 NW9       30.00S
TOPEKA FORBES  MOSUNNY   81  50  33 NW6       30.00F
$$



USA.gov is the U.S. government's official web portal to all federal, state and local government web resources and services.